Clayton Lake, ME

5:18 AM EDT on May 25, 2017 (GMT -0400)
Clayton Lake

Weather History for K40B - December, 2012

Change the Weather History Date:

Saturday, December 29, 2012

  Actual Average Record
Temperature  
Mean Temperature 14 °F -  
Max Temperature 18 °F 21 °F 46 °F (2003)
Min Temperature 10 °F 0 °F -9 °F (2006)
Degree Days  
Heating Degree Days 52    
Moisture  
Dew Point 13 °F    
Average Humidity 89    
Maximum Humidity 92    
Minimum Humidity 81    
Precipitation  
Precipitation 0.20 in - - ()
Sea Level Pressure  
Sea Level Pressure 29.90 in    
Wind  
Wind Speed 3 mph (North)    
Max Wind Speed 6 mph    
Max Gust Speed 14 mph    
Averages and records for this station are not official NWS values.
T = Trace of Precipitation, MM = Missing Value Source: NWS Daily Summary

Daily Weather History Graph

Daily Weather History Graph

Search for Another Location

Airport or City:

Trip Planner

Search our weather history database for the weather conditions in past years. The results will help you decide how hot, cold, wet, or windy it might be!

Date:

Astronomy

Dec. 29, 2012 Rise Set
Actual Time 7:22 AM EST 3:58 PM EST
Civil Twilight 6:47 AM EST 4:33 PM EST
Nautical Twilight 6:08 AM EST 5:12 PM EST
Astronomical Twilight 5:32 AM EST 5:49 PM EST
Moon 5:34 PM EST (12/29) 7:48 AM EST (12/29)
Length of Visible Light 9h 46m
Length of Day
8h 36m
Full, 98% of the Moon is Illuminated
Dec 29
Full
Jan 4
Last Quarter
Jan 11
New
Jan 18
First Quarter
Jan 26
Full

Hourly Weather History & Observations

Time (EST) Temp. Windchill Dew Point Humidity Pressure Visibility Wind Dir Wind Speed Gust Speed Precip Events Conditions
12:25 AM 15.6 °F 8.3 °F 12.7 °F 88% 29.93 in - Variable 4.6 mph 11.5 mph N/A   Unknown
1:25 AM 15.6 °F 8.3 °F 12.6 °F 88% 29.94 in - Variable 4.6 mph - 0.03 in   Unknown
2:25 AM 14.9 °F 9.2 °F 12.0 °F 88% 29.95 in - Variable 3.5 mph - 0.01 in   Unknown
3:25 AM 12.7 °F - 10.4 °F 90% 29.96 in - Calm Calm - N/A   Unknown
4:25 AM 10.6 °F - 8.6 °F 92% 29.95 in - Calm Calm - N/A   Unknown
5:25 AM 13.6 °F - 11.3 °F 90% 29.96 in - Variable 2.3 mph - 0.03 in   Unknown
6:25 AM 14.9 °F 6.1 °F 12.6 °F 90% 29.96 in - Variable 5.8 mph - N/A   Unknown
7:25 AM 14.2 °F 6.7 °F 12.0 °F 91% 29.99 in - Variable 4.6 mph 13.8 mph 0.04 in   Unknown
8:25 AM 14.2 °F 6.7 °F 11.5 °F 89% 30.01 in - Variable 4.6 mph 13.8 mph N/A   Unknown
9:25 AM 14.9 °F 7.5 °F 12.0 °F 88% 30.01 in - Variable 4.6 mph - 0.03 in   Unknown
10:26 AM 15.1 °F 9.4 °F 11.5 °F 86% 29.99 in - Variable 3.5 mph - 0.01 in   Unknown
11:25 AM 15.3 °F - 11.1 °F 84% 29.95 in - Variable 2.3 mph - N/A   Unknown
12:28 PM 16.9 °F 9.8 °F 12.0 °F 81% 29.93 in - Variable 4.6 mph - 0.01 in   Unknown
1:25 PM 16.9 °F - 12.9 °F 84% 29.91 in - Calm Calm - N/A   Unknown
2:25 PM 17.4 °F - 13.5 °F 84% 29.90 in - Calm Calm - N/A   Unknown
3:25 PM 17.2 °F - 14.0 °F 87% 29.89 in - Calm Calm - N/A   Unknown
4:25 PM 16.9 °F - 14.5 °F 91% 29.86 in - Variable 2.3 mph - N/A   Unknown
5:25 PM 16.3 °F - 14.2 °F 91% 29.84 in - Calm Calm - 0.01 in   Unknown
6:25 PM 16.0 °F - 13.8 °F 91% 29.84 in - Calm Calm - 0.00 in   Unknown
7:26 PM 15.8 °F - 13.5 °F 90% 29.82 in - Calm Calm - N/A   Unknown
8:25 PM 15.8 °F - 13.6 °F 91% 29.79 in - Calm Calm - N/A   Unknown
9:25 PM 15.6 °F - 13.6 °F 92% 29.76 in - Calm Calm - 0.01 in   Unknown
10:25 PM 15.8 °F 10.2 °F 13.6 °F 91% 29.74 in - Variable 3.5 mph - 0.01 in   Unknown
11:25 PM 16.0 °F 10.4 °F 13.8 °F 91% 29.69 in - Variable 3.5 mph - 0.01 in   Unknown